FW1194 Weather Reports


Display with metric or nautical units.
time (UTC)temp
F
wind
direction
speed
MPH
gust
MPH
rain 1hr
in
rain 24hr
in
rain mn
in
humidity
%
barometer
mb
20260510102216 40 0.0 0.0 0.00 0.00 0.00 75 1014.9
20260510101216 40 0.0 0.0 0.00 0.00 0.00 74 1014.7
20260510100216 40 0.0 0.0 0.00 0.00 0.00 73 1014.6
20260510095216 40 0.0 0.0 0.00 0.00 0.00 72 1014.5
20260510094216 41 0.0 0.0 0.00 0.00 0.00 71 1014.4
20260510093216 41 90 2.0 2.0 0.00 0.00 0.00 70 1014.4
20260510092236 42 0.0 0.0 0.00 0.00 0.00 69 1014.5
20260510091236 42 0.0 1.0 0.00 0.00 0.00 68 1014.5
20260510090216 43 0.0 0.0 0.00 0.00 0.00 66 1014.4
20260510085216 43 0.0 0.0 0.00 0.00 0.00 65 1014.3
20260510084216 44 0.0 0.0 0.00 0.00 0.00 65 1014.2
20260510083236 45 0.0 0.0 0.00 0.00 0.00 65 1014.1
20260510082216 45 0.0 1.0 0.00 0.00 0.00 62 1014.0
20260510081215 46 45 1.0 2.0 0.00 0.00 0.00 62 1013.7
20260510080216 46 45 1.0 2.0 0.00 0.00 0.00 61 1013.6
20260510075236 46 45 2.0 4.0 0.00 0.00 0.00 61 1013.3
20260510074216 47 68 4.0 6.0 0.00 0.00 0.00 60 1013.3
20260510073215 47 68 3.0 5.0 0.00 0.00 0.00 59 1013.3
20260510072216 47 45 3.0 5.0 0.00 0.00 0.00 59 1013.0
20260510071337 47 45 7.0 11.0 0.00 0.00 0.00 60 1012.9
20260510070218 47 45 7.0 10.0 0.00 0.00 0.00 63 1012.8
20260510065218 47 45 4.0 6.0 0.00 0.00 0.00 66 1012.6
20260510064218 47 23 4.0 6.0 0.00 0.00 0.00 67 1012.5
20260510063218 46 45 6.0 11.0 0.00 0.00 0.00 70 1012.4
20260510062238 45 68 3.0 4.0 0.00 0.00 0.00 73 1012.1
20260510061218 45 0 3.0 7.0 0.00 0.00 0.00 73 1012.0
20260510060217 45 225 2.0 3.0 0.00 0.00 0.00 72 1011.7
20260510055217 46 0.0 0.0 0.00 0.00 0.00 72 1011.6
20260510054238 46 0.0 0.0 0.00 0.00 0.00 71 1011.5
20260510053218 46 293 1.0 2.0 0.00 0.00 0.00 71 1011.4
20260510052217 46 0 2.0 3.0 0.00 0.00 0.00 70 1011.1
20260510051221 47 0.0 1.0 0.00 0.00 0.00 70 1011.0
20260510050215 47 0.0 1.0 0.00 0.00 0.00 69 1011.0
20260510045216 48 0.0 0.0 0.00 0.00 0.00 69 1010.8
20260510044216 48 0.0 1.0 0.00 0.00 0.00 68 1010.6
20260510043236 49 0.0 0.0 0.00 0.00 0.00 66 1010.4
20260510042216 49 0.0 1.0 0.00 0.00 0.00 62 1010.3
20260510041216 50 0.0 0.0 0.00 0.00 0.00 61 1010.1
20260510040216 50 0.0 0.0 0.00 0.00 0.00 60 1009.9
20260510035236 51 113 1.0 1.0 0.00 0.00 0.00 59 1009.9
20260510034216 51 0.0 1.0 0.00 0.00 0.00 58 1009.7
20260510033216 52 158 1.0 2.0 0.00 0.00 0.00 56 1009.7
20260510032216 52 0.0 1.0 0.00 0.00 0.00 55 1009.4
20260510031216 53 68 1.0 2.0 0.00 0.00 0.00 54 1009.3
20260510030257 53 68 1.0 1.0 0.00 0.00 0.00 53 1009.3
20260510025216 54 0.0 1.0 0.00 0.00 0.00 52 1009.1
20260510024216 54 90 2.0 4.0 0.00 0.00 0.00 51 1008.8
20260510023216 55 68 2.0 2.0 0.00 0.00 0.00 50 1008.6
20260510022236 55 90 2.0 3.0 0.00 0.00 0.00 49 1008.4
20260510021236 56 90 3.0 4.0 0.00 0.00 0.00 48 1008.2
20260510020216 57 68 2.0 3.0 0.00 0.00 0.00 47 1008.1
20260510015216 58 90 4.0 6.0 0.00 0.00 0.00 46 1007.8
20260510014216 59 68 6.0 10.0 0.00 0.00 0.00 44 1007.5
20260510013216 62 90 5.0 7.0 0.00 0.00 0.00 42 1007.2
20260510012216 64 68 3.0 7.0 0.00 0.00 0.00 40 1007.0
20260510011216 65 315 4.0 6.0 0.00 0.00 0.00 37 1006.7
20260510010216 65 0 3.0 5.0 0.00 0.00 0.00 34 1006.4
20260510005216 66 293 4.0 9.0 0.00 0.00 0.00 34 1006.1
20260510004216 66 293 4.0 5.0 0.00 0.00 0.00 33 1005.9
20260510003216 67 315 10.0 15.0 0.00 0.00 0.00 33 1005.8
20260510002216 68 315 6.0 12.0 0.00 0.00 0.00 32 1005.5
20260510001236 69 293 7.0 13.0 0.00 0.00 0.00 32 1005.3
20260510000216 69 270 9.0 12.0 0.00 0.00 0.00 33 1005.2
20260509235216 70 293 8.0 13.0 0.00 0.00 0.00 32 1004.9
20260509234216 70 270 6.0 10.0 0.00 0.00 0.00 32 1004.8
20260509233218 70 293 5.0 10.0 0.00 0.00 0.00 32 1004.7
20260509232217 71 293 9.0 13.0 0.00 0.00 0.00 31 1004.6
20260509231216 71 270 10.0 13.0 0.00 0.00 0.00 32 1004.4
20260509230218 71 293 5.0 8.0 0.00 0.00 0.00 32 1004.3
20260509225218 71 270 11.0 19.0 0.00 0.00 0.00 31 1004.1
20260509224218 72 270 9.0 12.0 0.00 0.00 0.00 30 1004.0
20260509223238 72 270 13.0 19.0 0.00 0.00 0.00 30 1003.9
20260509222217 72 315 10.0 14.0 0.00 0.00 0.00 31 1003.9
20260509221217 72 270 16.0 22.0 0.00 0.00 0.00 30 1003.7
20260509220318 73 270 10.0 14.0 0.00 0.00 0.00 29 1003.6
20260509215217 73 270 13.0 15.0 0.00 0.00 0.00 30 1003.4
20260509214237 73 270 10.0 14.0 0.00 0.00 0.00 29 1003.3
20260509213217 74 270 18.0 24.0 0.00 0.00 0.00 27 1003.3
20260509212217 74 293 13.0 20.0 0.00 0.00 0.00 28 1003.2
20260509211217 74 293 12.0 18.0 0.00 0.00 0.00 29 1003.0
20260509210217 74 248 17.0 30.0 0.00 0.00 0.00 29 1002.9
20260509205217 74 270 11.0 15.0 0.00 0.00 0.00 30 1002.8
20260509204217 74 270 16.0 19.0 0.00 0.00 0.00 28 1002.8
20260509203217 75 270 13.0 18.0 0.00 0.00 0.00 29 1002.6
20260509202237 74 270 14.0 20.0 0.00 0.00 0.00 29 1002.6
20260509201237 74 248 18.0 25.0 0.00 0.00 0.00 28 1002.8
20260509200217 74 270 10.0 14.0 0.00 0.00 0.00 30 1002.8
20260509195237 73 248 16.0 24.0 0.00 0.00 0.00 30 1003.0
20260509194258 73 270 19.0 29.0 0.00 0.00 0.00 30 1003.1
20260509193217 72 225 13.0 22.0 0.00 0.00 0.00 32 1003.0
20260509192238 71 270 11.0 18.0 0.00 0.00 0.00 32 1003.0
20260509191217 71 270 16.0 22.0 0.00 0.00 0.00 30 1003.1
20260509190217 71 248 16.0 19.0 0.00 0.00 0.00 30 1002.9
20260509185237 71 248 11.0 15.0 0.00 0.00 0.00 29 1002.9
20260509184217 72 270 12.0 16.0 0.00 0.00 0.00 28 1002.8
20260509183217 73 0 12.0 16.0 0.00 0.00 0.00 28 1002.6
20260509182258 71 225 10.0 17.0 0.00 0.00 0.00 29 1002.5
20260509181217 72 0 13.0 21.0 0.00 0.00 0.00 32 1002.8
20260509180217 71 0 9.0 13.0 0.00 0.00 0.00 31 1003.0
20260509175237 71 270 9.0 13.0 0.00 0.00 0.00 30 1003.1
20260509174217 72 270 8.0 11.0 0.00 0.00 0.00 30 1003.0
20260509173217 72 248 12.0 18.0 0.00 0.00 0.00 29 1003.2
20260509172217 71 270 11.0 15.0 0.00 0.00 0.00 31 1003.2
20260509171237 71 270 10.0 15.0 0.00 0.00 0.00 33 1003.3
20260509170237 71 270 14.0 19.0 0.00 0.00 0.00 33 1003.3
20260509165217 70 248 9.0 13.0 0.00 0.00 0.00 36 1003.3
20260509164217 71 248 10.0 13.0 0.00 0.00 0.00 36 1003.4
20260509163237 70 270 12.0 19.0 0.00 0.00 0.00 38 1003.4
20260509162217 70 225 12.0 16.0 0.00 0.00 0.00 40 1003.2
20260509161217 69 293 8.0 11.0 0.00 0.00 0.00 50 1003.2
20260509160217 68 270 6.0 10.0 0.00 0.00 0.00 51 1003.1
20260509155217 67 180 7.0 10.0 0.00 0.00 0.00 60 1003.1
20260509154217 67 203 9.0 11.0 0.00 0.00 0.00 59 1003.2
20260509153217 66 0 6.0 8.0 0.00 0.00 0.00 60 1003.1
20260509152217 65 0 9.0 13.0 0.00 0.00 0.00 65 1003.2
20260509151217 64 0 8.0 11.0 0.00 0.00 0.00 66 1003.1
20260509150217 64 270 6.0 9.0 0.00 0.00 0.00 66 1003.1
20260509145217 63 0 8.0 11.0 0.00 0.00 0.00 68 1003.1
20260509144217 63 248 7.0 11.0 0.00 0.00 0.00 68 1003.1
20260509143217 62 225 8.0 9.0 0.00 0.00 0.00 70 1003.1
20260509142237 61 225 6.0 8.0 0.00 0.00 0.00 70 1003.1
20260509141217 61 270 9.0 13.0 0.00 0.00 0.00 72 1003.2
20260509140237 60 248 6.0 10.0 0.00 0.00 0.00 73 1002.9
20260509135258 60 0 7.0 10.0 0.00 0.00 0.00 76 1003.0
20260509134217 59 225 6.0 9.0 0.00 0.00 0.00 78 1002.9
20260509133216 58 203 6.0 10.0 0.00 0.00 0.00 80 1002.7
20260509132217 57 0 6.0 12.0 0.00 0.00 0.00 81 1002.8
20260509131257 56 0 8.0 12.0 0.00 0.00 0.00 82 1002.8
20260509130237 56 225 11.0 14.0 0.00 0.00 0.00 83 1003.0
20260509125216 55 0 7.0 12.0 0.00 0.00 0.00 84 1002.9
20260509124217 55 248 7.0 10.0 0.00 0.00 0.00 86 1002.8
20260509123217 54 0 9.0 14.0 0.00 0.00 0.00 87 1002.8
20260509122217 54 225 9.0 13.0 0.00 0.00 0.00 88 1002.8
20260509121216 53 225 7.0 11.0 0.00 0.00 0.00 89 1002.8
20260509120217 52 203 7.0 10.0 0.00 0.00 0.00 89 1002.8
20260509115237 52 203 7.0 11.0 0.00 0.00 0.00 89 1002.7
20260509114216 52 225 9.0 13.0 0.00 0.00 0.00 89 1002.7
20260509113237 52 203 6.0 9.0 0.00 0.00 0.00 89 1002.5
20260509112217 52 225 7.0 9.0 0.00 0.00 0.00 89 1002.4
20260509111216 52 248 6.0 10.0 0.00 0.00 0.00 89 1002.5
20260509110217 52 203 6.0 9.0 0.00 0.00 0.00 89 1002.3
20260509105216 52 203 7.0 11.0 0.00 0.00 0.00 89 1002.3
20260509104237 52 203 8.0 11.0 0.00 0.00 0.00 89 1002.5
20260509103216 52 248 3.0 4.0 0.00 0.00 0.00 89 1002.2